Location: ???????
(55.4167°N, 38.3833°E)
Time: 13:53:25
(UTC+00:00)

Daily predictions for brighter satellites

Satellite Brightness Start Highest point End
(mag) Time Altitude Azimuth Time Altitude Azimuth Time Altitude Azimuth
USA 281 3.5 18:56:23 10° SE 19:02:51 64° NE 19:09:23 10° NNW
Cosmos 1850 Rocket 4.5 18:58:28 10° S 19:03:22 42° ESE 19:08:16 10° NE
Okean 1-7 4.4 19:01:02 10° SE 19:04:30 24° E 19:07:58 10° NE
Cosmos 2237 Rocket 4.0 19:00:01 10° NNW 19:04:50 27° NNE 19:09:36 10° E
Cosmos 2322 4.5 18:59:58 10° NNW 19:05:31 48° NE 19:10:58 10° ESE
SPOT 3 Rocket 4.0 19:01:48 10° S 19:06:53 59° WSW 19:12:01 10° NNW
Cosmos 1346 Rocket 2.7 19:03:04 10° NNW 19:06:59 89° E 19:10:50 10° SSE
Terra 2.8 19:03:08 10° S 19:07:38 43° W 19:12:09 10° NNW
OPS 8737 4.0 19:05:32 10° NW 19:08:31 89° NE 19:11:31 10° SE
Cosmos 2315 Rocket 4.2 19:03:19 10° NNW 19:09:44 82° W 19:16:07 10° S
Cosmos 2333 4.3 19:05:45 10° NW 19:11:34 88° ENE 19:17:22 10° SSE
BREEZE-M DEB (TANK) 4.4 19:10:01 10° SW 19:14:28 46° SSE 19:30:43 10° E
Genesis I 4.2 19:17:40 10° WSW 19:21:06 47° NNW 19:24:36 10° NE
Cosmos 1758 3.8 19:17:23 10° NNW 19:21:13 55° W 19:25:03 10° S
Cosmos 1741 Rocket 4.2 19:17:18 10° S 19:22:27 55° ESE 19:27:38 10° NNE
Cosmos 1242 Rocket 4.3 19:21:51 10° ESE 19:22:48 11° E 19:23:46 10° ENE
ALOS 2 4.3 19:19:21 10° ESE 19:22:50 23° ENE 19:26:18 10° N
Cosmos 2322 Rocket 2.8 19:19:19 10° NW 19:24:48 50° WSW 19:30:16 10° S
COSMOS 2406 4.1 19:19:52 10° SW 19:25:31 55° NW 19:31:11 10° NNE
Cosmos 968 Rocket 3.9 19:21:05 10° S 19:25:57 45° ESE 19:30:54 10° NE
Cosmos 1814 Rocket 4.1 19:21:23 10° NNW 19:26:42 83° WSW 19:32:02 10° SSE
USA 234 3.3 19:27:20 10° ENE 19:33:53 68° SSE 19:40:24 10° SW
Cosmos 1356 Rocket 3.4 19:31:44 10° SSW 19:35:56 89° ESE 19:40:11 10° NNE
Kosmos-1783 4.1 19:33:55 10° WNW 19:37:04 71° SW 19:43:25 10° SE
Meteor 1-21 4.3 19:32:22 10° S 19:38:09 80° ESE 19:44:01 10° NNE
Cosmos 1862 Rocket 3.6 19:35:21 10° S 19:39:45 84° E 19:44:13 10° NNE
COSMOS 2428 3.0 19:40:05 10° NNW 19:45:47 66° NE 19:51:27 10° SE
Okean 2 3.7 19:43:37 10° S 19:47:27 51° E 19:51:23 10° NNE
Cosmos 2219 Rocket 2.4 19:46:44 10° NW 19:52:23 69° WSW 19:57:45 11° SSE
Cosmos 1455 1.9 19:49:11 10° N 19:52:42 85° ENE 19:55:51 12° SSE
Cosmos 1400 Rocket 4.2 19:49:58 10° SW 19:53:36 37° WNW 19:57:12 10° N
SL-4 R/B 2.2 19:51:04 10° WSW 19:54:52 49° S 19:58:56 10° ESE
Landsat 5 3.9 19:52:18 10° N 19:56:13 61° WNW 20:00:14 10° SSW
Cosmos 1707 Rocket 4.2 19:56:16 10° SSW 20:00:39 56° WNW 20:05:03 10° N
Orbus 7S? 3.1 19:58:00 10° W 20:01:38 69° N 20:04:18 10° ENE
ATLAS CENTAUR R/B 1.0 20:02:28 10° SSW 20:05:56 59° SE 20:09:32 10° NE
ARIANE 5 R/B 2.7 20:01:59 12° S 20:05:59 72° WSW 20:10:20 10° NNW
Cosmos 1745 Rocket 4.5 20:00:45 11° SSE 20:06:31 50° E 20:12:38 10° NNE
SJ 16-02 1.3 20:03:22 10° SSW 20:07:39 72° ESE 20:12:00 10° NNE
Cosmos 1315 Rocket 2.8 20:04:39 10° S 20:08:36 77° ESE 20:12:37 10° NNE
Cosmos 1953 2.5 20:05:09 10° NNW 20:08:58 60° W 20:12:24 12° S
Okean 3 3.8 20:06:22 10° SSW 20:10:28 62° WNW 20:14:38 10° N
Nadezhda 1 Rocket 4.1 20:04:48 10° N 20:11:11 81° ENE 20:16:57 12° SSE
Meteor 1-4 Rocket 2.3 20:09:50 10° SSW 20:12:47 66° WNW 20:15:48 10° N
SL-27 R/B 2.5 20:11:27 10° SW 20:14:11 54° WNW 20:16:57 10° NNE
Aureole 3 4.1 20:10:27 10° SSW 20:14:24 59° WNW 20:19:23 10° N
Cosmos 2360 Rocket 3.5 20:10:49 10° NW 20:15:39 30° WSW 20:20:29 10° SSW
ATLAS 2AS CENTAUR R/B 3.6 20:12:36 10° WNW 20:18:38 34° WSW 20:24:07 12° S
GP-B 3.2 20:18:39 10° N 20:23:05 79° W 20:27:09 12° S
SL-16 R/B 4.4 20:21:06 10° WNW 20:24:01 14° W 20:26:56 10° SW
Cosmos 2333 Rocket 3.6 20:19:13 10° NW 20:24:03 28° WSW 20:28:53 10° SSW
H-2A R/B 2.6 20:23:15 14° S 20:26:56 75° WSW 20:31:13 10° NNW
Cosmos 1908 Rocket 4.3 20:25:59 10° NNW 20:30:10 46° W 20:34:00 12° SSW
Cosmos 1782 Rocket 3.6 20:28:28 10° NNW 20:32:49 76° W 20:36:24 15° S
SL-16 R/B 3.7 20:35:51 10° NNW 20:41:05 35° NE 20:46:18 10° ESE
Okean 1-7 3.7 20:37:18 10° SSW 20:41:31 51° WNW 20:45:46 10° N
Cosmos 1825 4.4 20:41:18 10° ESE 20:42:39 12° E 20:44:00 10° ENE
Cosmos 1833 4.4 20:37:22 10° SW 20:43:00 76° NW 20:48:40 10° NNE
USA 129 2.9 20:44:52 10° NE 20:45:39 14° ENE 20:45:39 14° ENE
USA 281 4.0 20:42:02 12° S 20:47:43 39° WSW 20:53:50 10° NW
Cosmos 2322 4.3 20:44:18 10° NW 20:49:44 46° WSW 20:54:15 14° S
Cosmos 2237 Rocket 2.3 20:44:03 10° NNW 20:49:46 78° NE 20:55:26 10° SE
Cosmos 2151 Rocket 4.4 20:46:51 10° N 20:51:06 44° ENE 20:55:00 12° SE
BlueWalker 3 3.4 20:50:10 17° SSE 20:51:11 18° SE 20:53:50 10° E
MINOTAUR 4 R/B 4.4 20:48:43 10° N 20:51:32 47° WNW 20:54:11 11° SW
Cosmos 405 Rocket 3.2 20:48:55 10° N 20:52:35 51° ENE 20:55:40 14° SSE
Meteor 1-24 Rocket 4.3 20:47:51 14° SSE 20:52:36 46° E 20:57:57 10° NNE
Cosmos 1408 2.1 20:50:38 19° S 20:52:38 68° E 20:55:38 10° NNE
Cosmos 1300 Rocket 3.8 20:49:17 10° NNW 20:53:31 58° W 20:56:57 15° S
Cosmos 1242 Rocket 2.6 20:52:09 13° SW 20:54:28 47° WNW 20:57:10 10° N
H-2A R/B 3.3 20:51:49 10° NE 20:55:35 29° E 20:58:34 14° SSE
EXPRESS MD2 3.7 20:56:00 10° WSW 20:56:56 17° SW 20:56:56 17° SW
Okean 2 Rocket 3.8 20:53:54 10° N 20:58:13 47° ENE 21:02:11 12° SE
ALOS 2 2.8 20:55:20 16° S 20:58:50 63° WSW 21:03:12 10° NNW
CZ-4C R/B 3.1 20:57:21 15° SSE 21:00:18 27° ESE 21:05:01 10° ENE
Cosmos 2227 Rocket 3.9 20:56:50 10° SE 21:00:39 19° E 21:04:27 10° ENE
Cosmos 1980 3.7 20:56:55 10° NW 21:02:38 85° WSW 21:07:57 12° SSE
Cosmos 371 Rocket 3.9 20:59:56 16° S 21:03:29 43° ESE 21:08:03 10° NE
Cosmos 1709 Rocket 4.1 21:00:29 14° S 21:06:10 83° E 21:12:34 10° NNE
NOSS 0 Rocket 4.2 21:03:27 10° NW 21:09:34 57° WSW 21:14:47 14° SSE
Cosmos 1703 3.1 21:10:09 17° S 21:12:51 71° E 21:16:33 10° NNE
USA 234 3.4 21:10:31 10° ENE 21:17:06 81° N 21:23:39 10° W
Cosmos 1378 Rocket 4.2 21:14:45 15° SSE 21:18:02 44° E 21:22:13 10° NNE
Sich 1 Rocket 3.7 21:15:52 10° N 21:20:18 72° ENE 21:23:55 15° SSE
Meteor 2-5 Rocket 3.9 21:15:20 15° S 21:20:20 72° E 21:26:10 10° NNE
Cosmos 2297 Rocket 2.8 21:16:08 15° S 21:20:24 41° ESE 21:25:41 10° NE
Cosmos 2242 Rocket 3.8 21:20:05 14° SSW 21:23:59 71° WNW 21:28:34 10° N
Cosmos 773 Rocket 4.3 21:21:24 10° NW 21:26:25 54° WSW 21:30:29 15° S
BREEZE-M DEB (TANK) 3.5 21:17:59 10° W 21:27:22 43° SSW 21:30:34 10° SE
CENTAUR R/B 4.0 21:25:39 11° SSE 21:29:34 21° ESE 21:34:27 10° ENE
COSMOS 2428 3.8 21:24:45 10° NW 21:29:41 31° WSW 21:33:47 14° SSW
SL-4 R/B 2.8 21:29:37 10° W 21:33:14 31° SSW 21:37:00 10° SE
Cosmos 2098 Rocket 4.3 21:27:46 10° NNW 21:34:15 68° W 21:39:49 15° S
COSMOS 2455 3.0 21:29:10 13° SSW 21:34:33 61° SE 21:40:31 10° NE
Cosmos 1892 3.2 21:32:49 17° SSE 21:35:15 44° E 21:38:38 10° NNE
Cosmos 2219 Rocket 4.2 21:32:12 10° WNW 21:35:21 15° W 21:38:29 10° SW
Cosmos 1538 Rocket 4.4 21:31:44 10° NNW 21:36:54 63° ENE 21:42:05 10° SE
Cosmos 1503 Rocket 4.2 21:35:27 15° S 21:39:50 64° ESE 21:45:05 10° NNE
NOSS 8 (F) 4.3 21:37:17 13° SW 21:40:23 61° SE 21:43:20 10° ENE
Cosmos 1777 Rocket 4.3 21:38:28 15° S 21:42:42 58° ESE 21:47:54 10° NNE
ATLAS CENTAUR R/B 2.9 21:40:31 10° W 21:43:48 32° NNW 21:47:12 10° NE
GENESIS II 4.0 21:41:26 10° SW 21:45:06 84° NW 21:48:46 10° NE
SJ 16-02 3.5 21:43:02 10° W 21:46:29 23° NW 21:49:58 10° N
PSLV R/B 3.7 21:47:41 10° N 21:51:57 66° WNW 21:55:30 14° SSW
Cosmos 332 Rocket 4.3 21:52:44 15° S 21:56:32 48° ESE 22:01:15 10° NE
Cosmos 2263 Rocket 3.9 21:52:45 10° SE 21:56:38 20° E 22:00:31 10° ENE
Cosmos 304 Rocket 3.8 21:52:46 14° SSW 21:56:55 89° WNW 22:01:43 10° NNE
Cosmos 2181 Rocket 4.3 21:53:32 10° NNW 21:59:35 54° W 22:04:45 14° SSW
Resurs 1-4 Rocket 4.4 21:57:15 10° NE 22:00:11 15° E 22:03:05 10° ESE
Okean 1 Rocket 3.1 21:58:06 10° NNW 22:02:26 72° W 22:06:00 15° S
Cosmos 1486 Rocket 4.4 22:01:46 10° SW 22:06:55 62° WNW 22:12:06 10° NNE
Helios 1A Rocket 2.9 22:11:17 11° SSE 22:14:58 72° ENE 22:18:47 10° NNW
Cosmos 1825 2.0 22:13:44 16° SSW 22:16:18 72° WNW 22:19:45 10° N
Cosmos 2074 Rocket 4.0 22:14:24 14° SSW 22:19:55 82° WNW 22:26:11 10° N
Cosmos 1354 Rocket 4.1 22:15:41 13° SSW 22:20:30 87° WNW 22:25:51 10° NNE
Cosmos 1606 3.9 22:19:03 10° N 22:22:22 35° ENE 22:25:41 10° SE
SL-16 R/B 2.2 22:19:58 10° NW 22:25:39 70° WSW 22:31:19 10° SSE
BREEZE-M DEB (TANK) 2.4 22:25:29 10° W 22:27:13 20° SSW 22:27:41 19° S
BlueWalker 3 2.1 22:25:09 10° WSW 22:28:46 47° SSE 22:32:23 10° E
H-2A R/B 2.9 22:27:20 10° N 22:31:27 44° WNW 22:35:22 10° SW
Cosmos 1975 Rocket 3.8 22:28:30 11° SSE 22:32:31 47° E 22:36:45 10° NNE
Cosmos 2237 Rocket 3.5 22:28:44 10° NW 22:33:17 25° WSW 22:37:15 12° SSW
Okean 2 Rocket 4.5 22:32:18 10° NNW 22:36:02 27° W 22:39:28 11° SW
SL-19 R/B 4.0 22:36:41 10° NNE 22:39:52 58° ESE 22:42:13 14° S
Cosmos 1455 Rocket 3.1 22:36:39 10° NNW 22:41:06 68° W 22:45:15 11° S
Cosmos 1943 3.6 22:36:13 10° NNW 22:41:51 66° NE 22:47:26 10° SE
Cosmos 1328 4.0 22:39:39 14° SSW 22:42:56 62° WNW 22:46:49 10° N
Cosmos 1818 3.6 22:37:33 10° NW 22:43:04 82° SW 22:48:33 10° SE
Cosmos 2227 Rocket 2.2 22:38:36 12° SSW 22:43:52 81° ESE 22:49:34 10° NE
Cosmos 371 Rocket 4.4 22:39:22 10° WSW 22:43:53 39° NW 22:48:26 10° NNE
Orbus 7S? 2.7 22:42:12 10° WNW 22:44:49 51° SSW 22:48:06 10° SE
Meteor 1-21 Rocket 4.3 22:42:07 12° S 22:47:32 85° ESE 22:53:15 10° NNE
Cosmos 1680 Rocket 3.7 22:42:41 10° NNW 22:47:56 78° ENE 22:53:08 10° SSE
CZ-4C R/B 2.2 22:43:06 10° SW 22:47:59 80° NW 22:54:18 10° NE
BREEZE-M DEB (TANK) 4.5 22:45:55 10° WSW 22:49:18 47° SSE 22:58:59 10° E
Cosmos 1869 3.4 22:45:43 10° N 22:49:26 67° ENE 22:53:07 10° SSE
Cosmos 2112 Rocket 4.3 22:44:19 10° NNW 22:49:32 70° ENE 22:54:42 10° SE
Nadezhda 3 Rocket 4.5 22:44:08 10° NNW 22:50:09 49° W 22:55:52 11° SSW
NOSS 3-3 (A) 4.5 22:45:47 10° NW 22:52:54 79° SW 23:01:21 10° SE
MOZ.5/SAFIR/RUBIN 5/SL-8 3.8 22:49:38 10° S 22:54:18 76° WSW 22:58:58 10° NNW
CZ-2C R/B 3.0 22:49:56 10° SSE 22:55:10 67° ENE 23:00:33 10° NNW
Cosmos 2084 Rocket 3.4 22:51:58 10° SW 22:56:08 73° SE 23:00:13 10° NE
CZ-2D R/B 3.4 22:52:08 10° NNE 22:57:03 35° E 23:01:52 10° SSE
IDEFIX/ARIANE 42P 3.4 22:52:32 10° NNE 22:57:37 46° E 23:02:37 10° S
Cosmos 2218 Rocket 4.5 22:53:29 10° S 22:59:35 58° E 23:05:38 10° NNE
USA 234 3.4 22:53:31 10° E 23:00:06 85° NNE 23:06:41 10° WNW
GEOS 3 Rocket 3.7 22:54:58 10° NE 23:00:12 81° NW 23:05:20 10° SW
Cosmos 2297 Rocket 2.9 22:58:53 10° WSW 23:04:23 52° NW 23:09:56 10° NNE
Cosmos 2219 3.3 22:59:15 11° SSW 23:04:37 70° ESE 23:10:14 10° NE
Cosmos 1025 Rocket 3.5 23:01:49 11° SSW 23:05:51 51° WNW 23:10:05 10° N
Cosmos 2366 rocket 4.3 23:02:10 10° S 23:08:24 68° E 23:14:36 10° NNE
Cosmos 1892 4.5 23:07:26 10° WSW 23:10:06 20° WNW 23:12:46 10° NNW
NPP 4.2 23:05:03 10° NNE 23:10:23 55° E 23:15:40 10° S
Cosmos 1607 4.5 23:04:00 10° NW 23:10:29 68° NE 23:16:49 10° ESE
SL-4 R/B 4.0 23:09:48 10° WSW 23:11:08 11° SW 23:12:04 11° SSW
Meteor 2-1 Rocket 4.5 23:05:44 10° NNW 23:11:36 65° W 23:17:23 10° S
NOSS 3 (A) 3.7 23:12:25 12° WSW 23:13:47 50° NW 23:15:27 10° NE
Cosmos 990 Rocket 4.1 23:08:39 10° SW 23:13:47 73° WNW 23:18:57 10° NNE
CENTAUR R/B 2.7 23:12:56 10° SW 23:18:53 74° SE 23:26:21 10° NE
ALOS 4.3 23:16:48 10° NE 23:20:25 22° E 23:24:01 10° SE
COSMOS 2455 3.8 23:14:57 10° WSW 23:20:45 47° NNW 23:26:36 10° NE
Aureole 1 Rocket 2.9 23:18:43 10° SSW 23:22:18 89° WNW 23:26:58 10° NNE
ATLAS CENTAUR R/B 3.9 23:19:35 10° NW 23:22:23 20° N 23:25:16 10° NE
SL-16 R/B 3.1 23:18:09 10° SE 23:24:19 65° ENE 23:30:30 10° NNW
ADEOS II 3.0 23:25:52 10° NNE 23:30:53 43° E 23:35:52 10° S
COBE Rocket 4.1 23:28:24 10° N 23:33:32 75° WNW 23:38:40 10° SSW
Cosmos 292 Rocket 3.9 23:29:23 10° SSW 23:34:10 78° WNW 23:39:01 10° NNE
Meteor 1-27 4.4 23:31:59 10° NNW 23:37:52 85° W 23:43:41 10° S
Cosmos 2263 Rocket 2.2 23:34:12 10° SSW 23:39:48 86° ESE 23:45:25 10° NE
SL-8 Rocket 4.1 23:34:34 10° SSW 23:40:43 71° WNW 23:46:57 10° N
Resurs 1-4 Rocket 2.3 23:35:37 10° NNE 23:40:55 73° ESE 23:46:12 10° S
MSX 4.0 23:35:11 10° NNE 23:40:57 80° ESE 23:46:42 10° SSW
Cosmos 494 Rocket 4.1 23:41:26 10° NNW 23:46:42 89° WSW 23:51:58 10° SSE
